User: anonymous   Login
Location: Columbia
(38.9520°N, 92.3340°W)
Time: 16:16:44
(UTC-06:00)
Language:

Cosmos 1633 - Orbit

View from above orbital plane
View from above orbital plane
View from above satellite
View from above satellite

Ground track
Ground track

The orbit data is extracted from the following two-line orbital elements,

1 15592U 85020A   16036.18533027  .00003930  00000-0  15071-3 0  9994
2 15592  82.5389  97.4927 0016093 132.0062 228.2550 15.26068348688278
Epoch (UTC): 05 February 2016 04:26:52
Eccentricity: 0.0016093
inclination: 82.5389°
perigee height: 476 km
apogee height: 498 km
right ascension of ascending node: 97.4927°
argument of perigee: 132.0062°
revolutions per day: 15.26068348
mean anomaly at epoch: 228.2550°
orbit number at epoch: 68827

The dashed part of the orbit path shows where the satellite is in the earth's shadow,  

DLR